Florence, Italy

12:02 AM CEST on August 26, 2016 (GMT +0200)
Peretola

Weather History for LIRQ - April, 2013

Change the Weather History Date:

Tuesday, April 2, 2013

  Actual Average Record
Temperature  
Mean Temperature 54 °F -  
Max Temperature 59 °F 67 °F 75 °F (2011)
Min Temperature 48 °F 46 °F 36 °F (2015)
Degree Days  
Heating Degree Days 12    
Growing Degree Days 4 (Base 50)    
Moisture  
Dew Point 43 °F    
Average Humidity 69    
Maximum Humidity 87    
Minimum Humidity 55    
Precipitation  
Precipitation 0.00 in 0.10 in - ()
Sea Level Pressure  
Sea Level Pressure 29.49 in    
Wind  
Wind Speed 5 mph ()    
Max Wind Speed 13 mph    
Max Gust Speed 29 mph    
Visibility 6.1 miles    
Events Rain    
Averages and records for this station are not official NWS values.
T = Trace of Precipitation, MM = Missing Value Source: Averaged Metar Reports

Daily Weather History Graph

Daily Weather History Graph

Search for Another Location

Airport or City:

Trip Planner

Search our weather history database for the weather conditions in past years. The results will help you decide how hot, cold, wet, or windy it might be!

Date:

Astronomy

Apr. 02, 2013 Rise Set
Actual Time 6:54 AM CEST 7:43 PM CEST
Civil Twilight 6:25 AM CEST 8:12 PM CEST
Nautical Twilight 5:51 AM CEST 8:47 PM CEST
Astronomical Twilight 5:15 AM CEST 9:23 PM CEST
Moon 1:41 AM CEST (4/2) 11:19 AM CEST (4/2)
Length of Visible Light 13h 46m
Length of Day
12h 48m
Waning Gibbous, 59% of the Moon is Illuminated
Apr 2
Waning Gibbous
Apr 3
Last Quarter
Apr 10
New
Apr 18
First Quarter
Apr 25
Full

Hourly Weather History & Observations

Time (CEST) Temp. Dew Point Humidity Pressure Visibility Wind Dir Wind Speed Gust Speed Precip Events Conditions
12:20 AM 50.0 °F 46.4 °F 87% 29.53 in 6.2 mi Calm Calm - N/A   Drizzle
12:50 AM 50.0 °F 46.4 °F 87% 29.50 in 6.2 mi NE 3.5 mph - N/A   Drizzle
1:20 AM 50.0 °F 46.4 °F 87% 29.50 in 6.2 mi NE 3.5 mph - N/A   Drizzle
1:50 AM 50.0 °F 46.4 °F 87% 29.50 in 6.2 mi NE 3.5 mph - N/A   Drizzle
2:20 AM 51.8 °F 44.6 °F 76% 29.47 in 6.2 mi ENE 6.9 mph - N/A   Drizzle
2:50 AM 51.8 °F 44.6 °F 76% 29.47 in 6.2 mi East 6.9 mph - N/A   Drizzle
3:20 AM 50.0 °F 44.6 °F 82% 29.47 in 6.2 mi ENE 5.8 mph - N/A   Drizzle
3:50 AM 50.0 °F 44.6 °F 82% 29.47 in 6.2 mi East 5.8 mph - N/A   Drizzle
4:20 AM 50.0 °F 42.8 °F 76% 29.47 in 6.2 mi Variable 3.5 mph - N/A   Drizzle
4:50 AM 50.0 °F 42.8 °F 76% 29.44 in 6.2 mi NNE 9.2 mph - N/A   Drizzle
5:20 AM 50.0 °F 42.8 °F 76% 29.44 in 6.2 mi NE 8.1 mph - N/A Rain Light Rain
5:50 AM 50.0 °F 42.8 °F 76% 29.44 in 6.2 mi Variable 3.5 mph - N/A Rain Light Rain
6:20 AM 50.0 °F 41.0 °F 71% 29.44 in 6.2 mi East 4.6 mph - N/A Rain Light Rain
6:50 AM 48.2 °F 42.8 °F 82% 29.44 in 5.6 mi Variable 4.6 mph - N/A Rain Light Rain
7:20 AM 50.0 °F 42.8 °F 76% 29.44 in 5.6 mi Variable 8.1 mph 19.6 mph N/A Rain Light Rain
7:50 AM 50.0 °F 42.8 °F 76% 29.47 in 5.6 mi Variable 4.6 mph - N/A   Light Drizzle
8:20 AM 50.0 °F 42.8 °F 76% 29.47 in 5.6 mi Variable 6.9 mph - N/A   Light Drizzle
8:50 AM 50.0 °F 41.0 °F 71% 29.47 in 6.2 mi Variable 4.6 mph - N/A   Mostly Cloudy
9:20 AM 51.8 °F 41.0 °F 67% 29.47 in 6.2 mi Variable 5.8 mph 17.3 mph N/A   Mostly Cloudy
9:50 AM 51.8 °F 42.8 °F 71% 29.47 in 6.2 mi Variable 4.6 mph - N/A   Light Drizzle
10:20 AM 51.8 °F 42.8 °F 71% 29.47 in 6.2 mi Variable 6.9 mph - N/A   Mostly Cloudy
10:50 AM 53.6 °F 44.6 °F 72% 29.47 in 6.2 mi Variable 4.6 mph 17.3 mph N/A   Scattered Clouds
11:20 AM 55.4 °F 42.8 °F 63% 29.47 in 6.2 mi SW 4.6 mph - N/A   Scattered Clouds
11:50 AM 55.4 °F 42.8 °F 63% 29.47 in 6.2 mi Variable 2.3 mph - N/A   Scattered Clouds
12:20 PM 57.2 °F 42.8 °F 59% 29.47 in 6.2 mi Variable 2.3 mph - N/A   Scattered Clouds
12:50 PM 57.2 °F 42.8 °F 59% 29.47 in 6.2 mi NNW 10.4 mph - N/A   Partly Cloudy
1:20 PM 59.0 °F 44.6 °F 59% 29.47 in 6.2 mi North 10.4 mph - N/A   Partly Cloudy
1:50 PM 57.2 °F 42.8 °F 59% 29.47 in 6.2 mi North 10.4 mph - N/A   Partly Cloudy
2:20 PM 59.0 °F 44.6 °F 59% 29.47 in 6.2 mi North 9.2 mph - N/A   Partly Cloudy
2:50 PM 59.0 °F 44.6 °F 59% 29.47 in 6.2 mi NNW 11.5 mph - N/A   Partly Cloudy
3:20 PM 59.0 °F 44.6 °F 59% 29.47 in - NNW 11.5 mph - N/A   Clear
3:50 PM 59.0 °F 42.8 °F 55% 29.47 in - North 10.4 mph - N/A   Clear
4:20 PM 57.2 °F 44.6 °F 63% 29.47 in - NNW 11.5 mph - N/A   Clear
4:50 PM 57.2 °F 42.8 °F 59% 29.47 in - NNW 12.7 mph 28.8 mph N/A   Clear
5:20 PM 57.2 °F 42.8 °F 59% 29.50 in - NNW 11.5 mph - N/A   Clear
5:50 PM 55.4 °F 41.0 °F 58% 29.50 in - NNW 10.4 mph - N/A   Clear
6:20 PM 55.4 °F 41.0 °F 58% 29.50 in 6.2 mi NNW 10.4 mph - N/A   Partly Cloudy
6:50 PM 55.4 °F 41.0 °F 58% 29.50 in 6.2 mi North 8.1 mph - N/A   Partly Cloudy
7:20 PM 51.8 °F 39.2 °F 62% 29.53 in 6.2 mi NW 4.6 mph - N/A   Partly Cloudy
7:50 PM 53.6 °F 39.2 °F 58% 29.53 in 6.2 mi Variable 2.3 mph - N/A   Partly Cloudy
8:20 PM 51.8 °F 39.2 °F 62% 29.56 in 6.2 mi Variable 2.3 mph - N/A   Partly Cloudy
8:50 PM 50.0 °F 41.0 °F 71% 29.56 in 6.2 mi Variable 2.3 mph - N/A   Partly Cloudy
9:20 PM 51.8 °F 41.0 °F 67% 29.56 in 6.2 mi SSW 3.5 mph - N/A   Scattered Clouds
9:50 PM 51.8 °F 41.0 °F 67% 29.59 in 6.2 mi Variable 2.3 mph - N/A   Scattered Clouds
10:20 PM 50.0 °F 41.0 °F 71% 29.59 in 6.2 mi Variable 3.5 mph - N/A   Scattered Clouds
10:50 PM 50.0 °F 39.2 °F 66% 29.59 in 6.2 mi Variable 1.2 mph - N/A   Scattered Clouds
11:20 PM 50.0 °F 41.0 °F 71% 29.59 in 6.2 mi SSE 3.5 mph - N/A   Scattered Clouds
11:50 PM 51.8 °F 41.0 °F 67% 29.59 in 6.2 mi Variable 2.3 mph - N/A   Scattered Clouds